FENGYUN 1C DEB, 31639

Orbit data source: Space-Track

FENGYUN 1C DEB, 31639 is space debris in SSO originally from a launch on Mon, 10 May 1999 UTC launched from the Taiyaun Space Center, China (TSC). Fengyun 1C debris stems from the Chinese weather satellite Fengyun-1C, which was intentionally destroyed by a Chinese anti-satellite missile in 2007. This event dramatically increased the amount of space debris, with thousands of trackable fragments posing hazards to satellites and human spaceflight. The Fengyun 1C debris cloud has become a focal point in discussions about space sustainability and the need for international regulations to prevent the creation of new debris.

Loading next visibility...
Identifier
31639, 1999-025CAV
Orbit
SSO
Country
Flag of CNCN / PRC
Related business
Manufacturer
Unknown
Mission
Spacecraft
Bus & Motor
Unknown
Mass
Unknown
Launch date (UTC)
1999-05-10 (27 years ago)
Launch vehicle
Unknown
Launch site
Taiyaun Space Center, China (TSC)
Object type
Payload
Rocket body
Debris
Shape & HBR
Unknown shape, 0.1 m
Radar Cross Section
Small (<0.1 m²)

Expand to show TLE details & history
Last TLE update: 17 hours ago

TLE from 17 hours ago
0 FENGYUN 1C DEB
1 31639U 99025CAV 26255.06223589  .00000078  00000-0  92702-4 0  9991
2 31639  98.7658 188.1096 0161825 122.8941 302.6945 13.85263477974724
Epoch: 2026-09-12T01:29Z
TLE epoch observation values (Epoch: 2026-09-12T01:29:37.180Z)
Latitude
62.76244°
Longitude
157.29198°
Altitude
893.358 km
Speed
7.443 km/s
True Right ascension
11h 23m 05s
True Declination
62° 37' 29"
Sunlit
Object was in daylight at epoch
Visualization orbit readout
Latitude
Unknown
Longitude
Unknown
Altitude
Unknown
Speed
Unknown
Apparent Right ascension
Unknown
Apparent Declination
Unknown
Sunlit
N/A
Visualization observer readout
Local Sidereal Time
10:39:26
Azimuth
Unknown
Elevation
Unknown
Doppler factor
Unknown
Orbital elements
Apogee altitude
1,060.95 km
Perigee altitude
824.018 km
Semi-major axis
7,320.621 km
Eccentricity
0.01618
Inclination
98.7658°
RAAN
188.1096°
Arg. of periapsis
122.8941°
True anomaly
301.11689°
Mean anomaly
302.6945°
Eccentric anomaly
301.90741°
Mean motion
3.46514 °/min
Orbital period
103.89 mins
BSTAR
0.000092702
Loading maneuver chart data...
Computing Atmospheric mass density...
Loading historical data...
Loading historical data...
Loading historical data...
Loading historical data...
Loading historical data...
Loading historical data...
Loading historical data...

Documentation

Showing up to 5 results
|